1515013200.04,39990,7.63,71416.8,-10.95,-13.65,-13.07,0,*63
1515013201.3,39991,7.63,71410.3,-10.95,-13.07,-12.65,0,*63
1515013202.54,39992,7.63,71368.8,-10.93,-12.89,-12.71,0,*64
1515013203.82,39993,7.63,71358.0,-10.91,-13.29,-13.19,0,*63
1515013205.08,39994,7.63,71392.0,-10.95,-13.47,-13.83,0,*6B
1515013206.28,39995,7.63,71418.0,-10.93,-14.29,-13.93,0,*62
1515013207.55,39996,7.63,71410.0,-10.95,-14.61,-13.97,0,*6F
1515013208.8,39997,7.63,71414.8,-10.93,-14.15,-13.61,0,*62
1515013210.03,39998,7.63,71420.8,-10.93,-14.29,-13.61,0,*62
1515013211.3,39999,7.63,71408.0,-10.91,-14.01,-13.15,0,*68
1515013212.57,40000,7.63,71420.5,-10.91,-13.61,-12.93,0,*61
1515013213.81,40001,7.63,71384.3,-10.93,-13.55,-13.01,0,*6F
1515013215.05,40002,7.63,71406.0,-10.93,-13.61,-13.19,0,*62
1515013216.29,40003,7.63,71400.0,-10.93,-13.73,-13.29,0,*63
1515013217.55,40004,7.63,71408.0,-10.95,-13.79,-13.51,0,*67
1515013218.8,40005,7.63,71426.5,-10.93,-13.87,-13.79,0,*6B
1515013220.04,40006,7.63,71422.5,-10.93,-14.05,-13.93,0,*61
1515013221.34,40007,7.63,71426.0,-10.95,-14.51,-14.05,0,*6F
1515013222.6,40008,7.63,71430.3,-10.93,-14.55,-14.05,0,*62
1515013223.81,40009,7.63,71426.0,-10.93,-14.65,-14.15,0,*61
1515013225.1,40010,7.63,71412.8,-10.95,-14.79,-14.05,0,*63
1515013226.35,40011,7.63,71424.8,-10.93,-14.75,-13.79,0,*64
1515013227.58,40012,7.63,71436.3,-10.93,-14.43,-13.65,0,*6F
1515013228.79,40013,7.63,71426.0,-10.93,-14.33,-13.73,0,*6E
1515013230.08,40014,7.63,71422.5,-10.95,-14.47,-13.79,0,*66
1515013231.3,40015,7.63,71408.0,-10.93,-14.19,-13.55,0,*64
1515013232.53,40016,7.63,71410.3,-10.93,-13.87,-13.43,0,*60
1515013233.79,40017,7.63,71392.0,-10.93,-13.79,-13.29,0,*6C
1515013235.03,40018,7.63,71394.0,-10.95,-13.47,-13.19,0,*6B
1515013236.27,40019,7.63,71392.8,-10.93,-13.61,-13.43,0,*67
1515013237.54,40020,7.63,71390.3,-10.93,-13.97,-13.61,0,*64
1515013238.8,40021,7.63,71378.3,-10.95,-14.23,-13.79,0,*62
1515013240.01,40022,7.63,71382.5,-10.93,-14.29,-13.65,0,*60
1515013241.21,40023,7.63,71386.0,-10.93,-14.29,-13.47,0,*61
1515013242.46,40024,7.63,71404.3,-10.93,-14.05,-13.19,0,*63
1515013243.7,40025,7.63,71414.0,-10.93,-13.87,-13.07,0,*60
1515013244.93,40026,7.63,71396.5,-10.93,-12.93,-12.61,0,*66
1515013246.17,40027,7.63,71378.5,-10.93,-12.65,-12.47,0,*6A
1515013247.4,40028,7.63,71374.0,-10.93,-12.47,-12.15,0,*62
1515013248.67,40029,7.63,71384.8,-10.93,-12.15,-11.93,0,*69
1515013249.91,40030,7.63,71394.5,-10.93,-12.03,-11.89,0,*6D
1515013251.16,40031,7.63,71380.3,-10.93,-11.89,-11.81,0,*65
1515013252.43,40032,7.63,71370.0,-10.93,-11.89,-11.89,0,*6E
1515013253.69,40033,7.63,71386.0,-10.93,-11.89,-11.89,0,*6F
1515013254.96,40034,7.63,71356.5,-10.93,-11.93,-11.81,0,*6B
1515013256.22,40035,7.63,71372.8,-10.93,-11.89,-11.81,0,*61
1515013257.48,40036,7.63,71410.0,-10.93,-11.89,-11.89,0,*6A
1515013258.72,40037,7.63,71410.8,-10.93,-12.03,-11.93,0,*61
1515013259.98,40038,7.63,71398.3,-10.93,-12.15,-12.15,0,*64
1515013261.2,40039,7.63,71398.5,-10.93,-12.29,-12.29,0,*65
1515013262.4,40040,7.63,71412.8,-10.93,-12.43,-12.43,0,*6B
1515013263.64,40041,7.63,71406.5,-10.93,-12.57,-12.43,0,*6F
1515013264.88,40042,7.63,71422.8,-10.93,-12.57,-12.47,0,*68
1515013266.17,40043,7.63,71406.0,-10.91,-12.57,-12.57,0,*6A
1515013267.44,40044,7.63,71388.0,-10.91,-12.75,-12.47,0,*6C
1515013268.68,40045,7.63,71362.3,-10.89,-12.57,-12.29,0,*6C
1515013269.95,40046,7.63,71350.5,-10.91,-12.57,-12.43,0,*6A
1515013271.24,40047,7.63,71438.8,-10.91,-12.57,-12.57,0,*6E
1515013272.51,40048,7.63,71430.8,-10.91,-12.93,-12.75,0,*69
1515013273.78,40049,7.63,71364.8,-10.91,-13.43,-12.79,0,*68
1515013275.07,40050,7.63,71350.3,-10.91,-13.01,-12.57,0,*6A
1515013276.37,40051,7.63,71422.5,-10.91,-12.71,-12.35,0,*69
1515013277.63,40052,7.63,71396.3,-10.91,-12.47,-12.15,0,*6D
1515013278.9,40053,7.63,71418.5,-10.91,-12.43,-12.07,0,*6B
1515013280.17,40054,7.63,71408.3,-10.91,-12.35,-12.03,0,*69
1515013281.39,40055,7.63,71424.8,-10.89,-12.29,-12.03,0,*6C
1515013282.66,40056,7.63,71418.8,-10.91,-12.21,-12.15,0,*69
1515013283.9,40057,7.63,71432.8,-10.89,-12.39,-12.15,0,*68
1515013285.14,40058,7.63,71414.8,-10.89,-12.53,-12.25,0,*68
1515013286.41,40059,7.63,71390.5,-10.91,-12.71,-12.47,0,*64
1515013287.7,40060,7.63,71430.8,-10.91,-12.71,-12.57,0,*6F
1515013288.94,40061,7.63,71408.3,-10.89,-12.97,-12.53,0,*6B
1515013290.16,40062,7.63,71398.3,-10.89,-12.89,-12.43,0,*66
1515013291.45,40063,7.63,71360.8,-10.91,-12.57,-12.15,0,*6E
1515013292.69,40064,7.63,71388.8,-10.89,-12.15,-12.03,0,*61
1515013293.92,40065,7.63,71420.8,-10.89,-12.39,-12.15,0,*69
1515013295.16,40066,7.63,71428.3,-10.89,-12.43,-12.15,0,*67
1515013296.42,40067,7.63,71420.5,-10.87,-12.39,-12.15,0,*65
1515013297.67,40068,7.63,71422.5,-10.89,-12.29,-12.11,0,*61
1515013298.93,40069,7.63,71406.8,-10.89,-12.15,-11.97,0,*62
1515013300.17,40070,7.63,71382.3,-10.89,-12.03,-11.89,0,*62
1515013301.41,40071,7.63,71412.3,-10.89,-12.03,-11.89,0,*63
1515013302.68,40072,7.63,71372.0,-10.89,-11.97,-11.89,0,*6E
1515013303.95,40073,7.63,71382.8,-10.89,-12.11,-12.11,0,*60
1515013305.19,40074,7.63,71384.8,-10.89,-12.15,-12.39,0,*69
1515013306.43,40075,7.63,71360.0,-10.89,-12.39,-12.75,0,*6E
1515013307.64,40076,7.63,71348.5,-10.89,-12.97,-13.23,0,*6B
1515013308.86,40077,7.63,71392.8,-10.89,-13.55,-13.43,0,*63
1515013310.12,40078,7.63,71384.0,-10.91,-13.87,-13.93,0,*67
1515013311.37,40079,7.63,71394.8,-10.89,-14.23,-14.01,0,*6A
1515013312.63,40080,7.63,71408.3,-10.91,-14.89,-14.47,0,*67
1515013313.87,40081,7.63,71424.0,-10.89,-15.01,-14.29,0,*66
1515013315.1,40082,7.63,71444.5,-10.89,-14.97,-14.29,0,*6B
1515013316.34,40083,7.63,71456.0,-10.89,-14.55,-13.51,0,*6C
1515013317.61,40084,7.63,71432.3,-10.91,-13.79,-13.19,0,*67
1515013318.83,40085,7.63,71418.5,-10.89,-13.51,-12.97,0,*62
1515013320.11,40086,7.63,71444.5,-10.91,-13.43,-12.75,0,*67
1515013321.37,40087,7.63,71424.8,-10.89,-13.01,-12.57,0,*69
1515013322.63,40088,7.63,71416.8,-10.89,-12.83,-12.53,0,*69
1515013323.9,40089,7.63,71402.8,-10.91,-12.71,-12.43,0,*6D
1515013325.17,40090,7.63,71418.5,-10.91,-12.47,-12.15,0,*63
1515013326.43,40091,7.63,71410.0,-10.91,-12.43,-12.15,0,*66
1515013327.69,40092,7.63,71432.8,-10.89,-12.15,-11.97,0,*66
1515013328.99,40093,7.63,71400.8,-10.91,-12.15,-11.93,0,*6A
1515013330.28,40094,7.63,71414.8,-10.91,-11.93,-11.81,0,*63
1515013331.55,40095,7.63,71352.3,-10.89,-11.97,-11.89,0,*67
1515013332.85,40096,7.63,71330.3,-10.91,-12.07,-11.93,0,*6C
1515013334.11,40097,7.63,71420.0,-10.89,-12.07,-11.81,0,*67
1515013335.37,40098,7.63,71378.0,-10.89,-11.85,-11.73,0,*6C
1515013336.64,40099,7.63,71406.5,-10.89,-11.77,-11.73,0,*60
1515013337.9,40100,7.63,71406.5,-10.89,-11.73,-11.59,0,*6D
1515013339.16,40101,7.63,71384.8,-10.89,-11.73,-11.59,0,*6C
1515013340.42,40102,7.63,71418.5,-10.89,-11.67,-11.55,0,*66
1515013341.69,40103,7.63,71380.8,-10.89,-11.59,-11.59,0,*66
1515013342.96,40104,7.63,71402.5,-10.89,-11.59,-11.55,0,*6D
1515013344.22,40105,7.63,71392.0,-10.89,-11.67,-11.59,0,*6D
1515013345.49,40106,7.63,71402.3,-10.89,-11.73,-11.55,0,*67
1515013346.78,40107,7.63,71424.5,-10.87,-11.67,-11.59,0,*61
1515013348.07,40108,7.63,71434.0,-10.87,-11.73,-11.73,0,*63
1515013349.35,40109,7.63,71354.5,-10.87,-11.85,-11.77,0,*6F
1515013350.64,40110,7.63,71346.5,-10.87,-11.85,-11.85,0,*6A
1515013351.91,40111,7.63,71376.5,-10.89,-11.73,-11.67,0,*60
1515013353.2,40112,7.63,71384.3,-10.83,-11.63,-11.63,0,*6C
1515013354.49,40113,7.63,71346.0,-10.87,-11.73,-11.73,0,*69
1515013355.78,40114,7.63,71362.3,-10.87,-11.85,-11.97,0,*6D
1515013357.05,40115,7.63,71338.5,-10.87,-12.03,-12.11,0,*6C
1515013358.29,40116,7.63,71346.3,-10.87,-12.39,-12.43,0,*61
1515013359.56,40117,7.63,71354.5,-10.87,-12.53,-12.43,0,*6C
1515013360.83,40118,7.63,71350.8,-10.87,-12.53,-12.39,0,*6E
1515013362.1,40119,7.63,71338.0,-10.87,-12.53,-12.25,0,*62
1515013363.34,40120,7.63,71338.3,-10.87,-12.29,-12.03,0,*61
1515013364.61,40121,7.63,71334.0,-10.87,-12.25,-11.89,0,*6D
1515013365.88,40122,7.63,71354.5,-10.87,-12.25,-12.11,0,*6C
1515013367.12,40123,7.63,71366.5,-10.87,-12.39,-12.25,0,*67
1515013368.37,40124,7.63,71388.5,-10.87,-12.29,-12.25,0,*61
1515013369.64,40125,7.63,71324.0,-10.87,-12.53,-12.39,0,*60
1515013370.88,40126,7.63,71332.5,-10.87,-12.39,-12.25,0,*62
1515013372.11,40127,7.63,71334.8,-10.89,-12.43,-12.15,0,*63
1515013373.38,40128,7.63,71346.5,-10.87,-12.43,-12.11,0,*66
1515013374.67,40129,7.63,71344.5,-10.83,-12.35,-11.97,0,*6F
1515013375.96,40130,7.63,71330.0,-10.87,-12.15,-11.97,0,*61
1515013377.25,40131,7.63,71362.8,-10.83,-12.07,-11.85,0,*64
1515013378.52,40132,7.63,71320.8,-10.87,-12.03,-11.97,0,*64
1515013379.81,40133,7.63,71312.0,-10.87,-12.11,-11.97,0,*66
1515013381.1,40134,7.63,71318.8,-10.87,-11.89,-11.77,0,*6D
1515013382.38,40135,7.63,71292.5,-10.87,-11.85,-11.77,0,*60
1515013383.68,40136,7.63,71316.8,-10.87,-11.97,-11.89,0,*61
1515013384.92,40137,7.63,71318.5,-10.87,-12.03,-12.03,0,*6F
1515013386.21,40138,7.63,71320.5,-10.87,-12.15,-12.15,0,*60
1515013387.48,40139,7.63,71334.5,-10.87,-12.53,-12.29,0,*6C
1515013388.74,40140,7.63,71342.8,-10.87,-12.43,-12.15,0,*6C
1515013390.01,40141,7.63,71358.3,-10.87,-12.53,-12.39,0,*62
1515013391.28,40142,7.63,71370.3,-10.83,-12.47,-12.35,0,*6C
1515013392.52,40143,7.63,71384.3,-10.83,-12.47,-12.47,0,*68
1515013393.79,40144,7.63,71396.0,-10.87,-12.75,-12.89,0,*68
1515013395.03,40145,7.63,71366.8,-10.89,-13.15,-12.83,0,*6A
1515013396.3,40146,7.63,71360.3,-10.83,-12.97,-12.79,0,*6D
1515013397.57,40147,7.63,71392.3,-10.87,-13.11,-12.71,0,*6F
1515013398.83,40148,7.63,71374.5,-10.87,-13.15,-12.83,0,*69
1515013400.1,40149,7.63,71374.8,-10.87,-12.89,-12.57,0,*65
1515013401.37,40150,7.63,71380.0,-10.87,-12.65,-12.39,0,*67
1515013402.61,40151,7.63,71330.8,-10.89,-12.53,-12.39,0,*6D
1515013403.85,40152,7.63,71314.3,-10.89,-12.65,-12.43,0,*66
1515013405.11,40153,7.63,71312.0,-10.87,-12.57,-12.43,0,*68
1515013406.38,40154,7.63,71406.0,-10.87,-12.57,-12.43,0,*6F
1515013407.67,40155,7.63,71448.0,-10.83,-12.71,-12.61,0,*6E
1515013408.94,40156,7.63,71414.8,-10.83,-13.07,-12.71,0,*6C
1515013410.21,40157,7.63,71384.5,-10.83,-13.11,-12.83,0,*67
1515013411.48,40158,7.63,71412.0,-10.87,-13.01,-12.97,0,*68
1515013412.77,40159,7.63,71352.5,-10.87,-13.01,-13.01,0,*67
1515013414.0,40160,7.63,71314.3,-10.87,-13.15,-13.15,0,*6D
1515013415.21,40161,7.63,71324.3,-10.89,-13.43,-13.43,0,*62
1515013416.45,40162,7.63,71402.5,-10.89,-13.73,-13.61,0,*62
1515013417.7,40163,7.63,71400.8,-10.89,-13.83,-13.11,0,*6B
1515013418.96,40164,7.63,71336.0,-10.89,-13.01,-12.75,0,*65
1515013420.18,40165,7.63,71380.0,-10.89,-13.11,-12.89,0,*66
1515013421.4,40166,7.63,71336.0,-10.89,-12.93,-12.93,0,*65
1515013422.62,40167,7.63,71354.8,-10.89,-13.47,-13.19,0,*6F
1515013423.88,40168,7.63,71372.0,-10.89,-13.37,-13.01,0,*6E
1515013425.13,40169,7.63,71372.3,-10.91,-13.19,-13.19,0,*63
1515013426.42,40170,7.63,71330.8,-10.91,-13.61,-13.61,0,*6B
1515013427.67,40171,7.63,71332.5,-10.89,-14.05,-13.51,0,*65
1515013428.97,40172,7.63,71342.3,-10.91,-13.29,-12.75,0,*61
1515013430.24,40173,7.63,71374.0,-10.91,-12.75,-12.47,0,*69
1515013431.53,40174,7.63,71374.0,-10.91,-12.61,-12.35,0,*6E
1515013432.74,40175,7.63,71356.8,-10.89,-12.39,-12.25,0,*6A
1515013433.98,40176,7.63,71342.8,-10.91,-12.43,-12.21,0,*69
1515013435.25,40177,7.63,71346.0,-10.91,-12.21,-12.15,0,*6B
1515013436.55,40178,7.63,71338.5,-10.91,-12.07,-12.07,0,*63
1515013437.79,40179,7.63,71350.8,-10.91,-12.03,-12.03,0,*62
1515013439.03,40180,7.63,71362.3,-10.91,-12.03,-12.03,0,*64
1515013440.27,40181,7.63,71364.3,-10.91,-12.03,-12.03,0,*65
1515013441.54,40182,7.63,71376.3,-10.91,-12.07,-12.03,0,*62
1515013442.83,40183,7.63,71380.5,-10.91,-12.15,-12.15,0,*67
1515013444.07,40184,7.63,71392.3,-10.89,-12.03,-12.07,0,*6D
1515013445.37,40185,7.63,71420.0,-10.91,-12.15,-12.07,0,*62
1515013446.66,40186,7.63,71314.5,-10.91,-12.15,-12.15,0,*62
1515013447.9,40187,7.63,71298.0,-10.91,-12.29,-12.21,0,*6B
1515013449.2,40188,7.63,71308.3,-10.91,-12.15,-12.07,0,*6F
1515013450.49,40189,7.63,71312.0,-10.91,-11.89,-11.89,0,*6D
1515013451.74,40190,7.63,71310.3,-10.91,-12.03,-12.03,0,*65
1515013452.98,40191,7.63,71324.3,-10.89,-12.15,-12.03,0,*6A
1515013454.22,40192,7.63,71344.0,-10.91,-12.47,-12.39,0,*6E
1515013455.46,40193,7.63,71324.8,-10.89,-12.57,-12.39,0,*67
1515013456.76,40194,7.63,71320.3,-10.91,-12.35,-12.07,0,*60
1515013458.02,40195,7.63,71338.0,-10.91,-12.07,-12.03,0,*64
1515013459.29,40196,7.63,71356.3,-10.91,-12.15,-12.29,0,*6C
1515013460.53,40197,7.63,71348.8,-10.89,-12.39,-12.53,0,*67
1515013461.82,40198,7.63,71354.0,-10.91,-12.79,-13.01,0,*63
1515013463.06,40199,7.63,71342.0,-10.91,-13.15,-12.93,0,*63
1515013464.28,40200,7.63,71352.5,-10.89,-13.23,-13.51,0,*63
1515013465.52,40201,7.63,71342.5,-10.91,-14.33,-14.65,0,*6D
1515013466.74,40202,7.63,71350.5,-10.89,-15.29,-15.15,0,*6B
1515013467.99,40203,7.63,71356.3,-10.91,-15.67,-15.53,0,*6B
1515013469.28,40204,7.63,71358.0,-10.91,-15.43,-14.79,0,*63
1515013470.55,40205,7.63,71348.8,-10.91,-14.47,-14.19,0,*61
1515013471.8,40206,7.63,71328.8,-10.89,-14.29,-14.01,0,*6A
1515013473.07,40207,7.63,71362.0,-10.91,-14.05,-13.55,0,*6A
1515013474.34,40208,7.63,71350.8,-10.91,-13.93,-14.01,0,*6B
1515013475.61,40209,7.63,71376.8,-10.91,-14.47,-14.61,0,*62
1515013476.91,40210,7.63,71380.8,-10.91,-14.79,-14.47,0,*63
1515013478.11,40211,7.63,71324.8,-10.93,-14.65,-14.61,0,*69
1515013479.35,40212,7.63,71300.3,-10.93,-14.93,-15.15,0,*61
1515013480.58,40213,7.63,71354.3,-10.93,-15.43,-15.63,0,*6D
1515013481.85,40214,7.63,71304.5,-10.93,-16.17,-16.09,0,*67
1515013483.12,40215,7.63,71336.0,-10.93,-15.89,-16.09,0,*62
1515013484.33,40216,7.63,71344.3,-10.93,-16.03,-16.03,0,*6A
1515013485.57,40217,7.63,71342.0,-10.93,-16.09,-15.95,0,*6D
1515013486.87,40218,7.63,71288.8,-10.95,-15.85,-15.85,0,*62
1515013488.12,40219,7.63,71294.8,-10.95,-15.67,-15.53,0,*64
1515013489.33,40220,7.63,71320.0,-10.97,-15.71,-15.63,0,*68
1515013490.6,40221,7.63,71330.0,-10.95,-16.09,-15.99,0,*62
1515013491.87,40222,7.63,71318.3,-10.95,-16.13,-15.99,0,*6A
1515013493.13,40223,7.63,71308.0,-10.95,-16.45,-16.27,0,*6E
1515013494.39,40224,7.63,71312.0,-10.93,-16.69,-16.51,0,*60
1515013495.64,40225,7.63,71318.0,-10.95,-16.55,-16.41,0,*69
1515013496.86,40226,7.63,71318.5,-10.97,-16.75,-16.59,0,*63
1515013498.08,40227,7.63,71300.8,-10.97,-16.79,-16.59,0,*6E
1515013499.32,40228,7.63,71312.8,-10.97,-16.93,-16.65,0,*6A
1515013500.56,40229,7.63,71312.8,-10.97,-16.79,-16.65,0,*6F
1515013501.82,40230,7.63,71328.5,-10.99,-16.65,-16.45,0,*66
1515013503.06,40231,7.63,71322.5,-10.99,-16.59,-16.41,0,*6C
1515013504.3,40232,7.63,71300.3,-10.99,-16.59,-16.45,0,*6B
1515013505.56,40233,7.63,71316.0,-10.99,-16.45,-16.27,0,*63
1515013506.85,40234,7.63,71324.8,-10.99,-16.51,-16.27,0,*61
1515013508.12,40235,7.63,71328.3,-10.99,-15.75,-15.39,0,*69
1515013509.41,40236,7.63,71342.8,-10.99,-15.57,-15.39,0,*6A
1515013510.69,40237,7.69,71342.8,-10.99,-15.53,-15.39,0,*6F
1515013511.93,40238,7.69,71364.3,-11.01,-15.15,-14.83,0,*62
1515013513.14,40239,7.63,71326.5,-11.01,-15.15,-15.11,0,*69
1515013514.39,40240,7.63,71310.8,-11.01,-15.43,-15.25,0,*63
1515013515.64,40241,7.63,71288.0,-11.01,-15.39,-15.25,0,*6F
1515013516.93,40242,7.63,71284.8,-11.03,-15.57,-15.43,0,*66
1515013518.17,40243,7.63,71310.3,-11.01,-15.29,-14.75,0,*68
1515013519.43,40244,7.63,71328.0,-11.01,-14.75,-14.43,0,*62
1515013520.69,40245,7.63,71330.8,-11.01,-15.01,-14.97,0,*68
1515013521.94,40246,7.63,71326.5,-11.01,-15.39,-15.25,0,*68
1515013523.2,40247,7.63,71304.0,-11.03,-15.89,-15.63,0,*62
1515013524.47,40248,7.63,71326.3,-10.99,-15.71,-15.43,0,*6A
1515013525.72,40249,7.63,71344.5,-11.01,-15.71,-15.43,0,*6B
1515013526.98,40250,7.63,71332.8,-11.01,-15.85,-15.89,0,*6E
1515013528.25,40251,7.63,71384.8,-11.01,-16.23,-16.13,0,*60
1515013529.49,40252,7.63,71400.5,-11.01,-16.79,-16.51,0,*6A
1515013530.75,40253,7.63,71352.8,-11.03,-16.45,-16.31,0,*60
1515013532.02,40254,7.63,71330.5,-11.03,-16.51,-16.37,0,*64
1515013533.28,40255,7.63,71350.3,-11.03,-16.55,-16.31,0,*67
1515013534.57,40256,7.63,71356.3,-11.03,-16.31,-15.57,0,*65
1515013535.84,40257,7.63,71356.3,-11.03,-15.43,-14.89,0,*60
1515013537.1,40258,7.63,71360.3,-11.03,-14.89,-14.43,0,*6E
1515013538.34,40259,7.63,71364.8,-11.03,-14.61,-14.15,0,*6A
1515013539.56,40260,7.63,71402.3,-11.01,-14.37,-13.51,0,*66
1515013540.83,40261,7.63,71370.5,-11.03,-13.61,-13.07,0,*62
1515013542.07,40262,7.63,71298.8,-11.01,-13.37,-13.11,0,*67
1515013543.36,40263,7.63,71344.8,-11.03,-13.29,-13.01,0,*6A
1515013544.59,40264,7.63,71366.3,-11.03,-13.15,-12.89,0,*63
1515013545.86,40265,7.63,71360.5,-11.03,-12.93,-13.01,0,*6C
1515013547.09,40266,7.69,71368.3,-11.01,-13.37,-13.69,0,*6C
1515013548.39,40267,7.69,71352.0,-11.03,-14.43,-14.47,0,*60
1515013549.64,40268,7.63,71334.0,-11.01,-14.83,-14.89,0,*63
1515013550.87,40269,7.69,71360.0,-11.01,-15.57,-15.63,0,*6F
1515013552.15,40270,7.63,71336.8,-11.03,-16.17,-15.95,0,*6B
1515013553.41,40271,7.69,71394.0,-11.03,-16.55,-16.51,0,*67
1515013554.71,40272,7.63,71350.0,-11.03,-16.31,-16.09,0,*6B
1515013555.98,40273,7.63,71340.3,-11.03,-15.67,-15.43,0,*67
1515013557.27,40274,7.63,71326.3,-11.03,-15.43,-15.01,0,*60
1515013558.5,40275,7.63,71332.0,-11.01,-14.89,-14.75,0,*66
1515013559.74,40276,7.63,71384.3,-11.01,-14.89,-14.51,0,*63
1515013561.01,40277,7.63,71354.0,-11.03,-14.05,-13.69,0,*68
1515013562.25,40278,7.63,71336.3,-11.01,-13.69,-13.37,0,*63
1515013563.49,40279,7.69,71296.5,-11.01,-13.55,-13.61,0,*6E
1515013564.76,40280,7.63,71330.0,-11.01,-13.83,-13.83,0,*6F
1515013566.0,40281,7.63,71348.3,-11.03,-14.29,-14.29,0,*6C
1515013567.27,40282,7.63,71370.0,-11.03,-15.01,-15.29,0,*65
1515013568.53,40283,7.63,71374.3,-11.01,-16.65,-16.31,0,*6D
1515013569.8,40284,7.63,71370.0,-11.03,-16.23,-15.95,0,*67
1515013571.07,40285,7.63,71364.3,-11.01,-16.27,-15.39,0,*66
1515013572.33,40286,7.63,71344.8,-11.03,-14.75,-14.29,0,*62
1515013573.6,40287,7.63,71304.5,-11.03,-14.33,-14.01,0,*6B
1515013574.85,40288,7.69,71304.0,-11.03,-14.15,-13.93,0,*6C
1515013576.12,40289,7.63,71310.8,-11.03,-14.19,-13.87,0,*64
1515013577.38,40290,7.63,71326.5,-11.03,-13.93,-13.33,0,*66
1515013578.6,40291,7.63,71340.8,-11.01,-13.23,-12.97,0,*61
1515013579.84,40292,7.63,71326.0,-11.03,-13.15,-13.19,0,*62
1515013581.11,40293,7.63,71346.5,-11.03,-13.33,-13.55,0,*6F
1515013582.35,40294,7.63,71346.3,-11.01,-14.01,-14.29,0,*60
1515013583.63,40295,7.69,71336.0,-11.03,-14.55,-15.07,0,*6F
1515013584.92,40296,7.63,71348.5,-11.03,-16.23,-16.69,0,*64
1515013586.18,40297,7.63,71290.0,-11.03,-15.89,-15.63,0,*6F
1515013587.45,40298,7.63,71344.8,-11.03,-15.35,-15.67,0,*63
1515013588.71,40299,7.63,71350.8,-11.05,-16.51,-16.51,0,*63
1515013589.95,40300,7.63,71334.5,-11.03,-16.93,-16.83,0,*65
1515013591.24,40301,7.63,71300.0,-11.03,-16.31,-16.17,0,*61
1515013592.49,40302,7.63,71320.5,-11.05,-16.09,-15.95,0,*66
1515013593.74,40303,7.63,71312.8,-11.05,-15.89,-16.03,0,*60
1515013595.03,40304,7.69,71312.0,-11.03,-16.51,-16.69,0,*6B
1515013596.3,40305,7.63,71304.8,-11.03,-16.69,-16.79,0,*60
1515013597.54,40306,7.63,71304.0,-11.03,-16.97,-16.97,0,*62
1515013598.82,40307,7.63,71312.3,-11.09,-17.17,-17.25,0,*68
1515013600.09,40308,7.63,71310.3,-11.05,-17.11,-17.21,0,*69
1515013601.36,40309,7.63,71312.8,-11.05,-17.11,-17.21,0,*68
1515013602.61,40310,7.63,71308.3,-11.09,-17.31,-17.25,0,*6A
1515013603.88,40311,7.63,71308.5,-11.05,-17.21,-17.21,0,*62
1515013605.16,40312,7.63,71316.5,-11.09,-17.25,-17.17,0,*6C
1515013606.39,40313,7.63,71322.0,-11.09,-16.97,-16.89,0,*63
1515013607.63,40314,7.63,71330.3,-11.05,-17.11,-16.97,0,*68
1515013608.92,40315,7.69,71328.5,-11.09,-17.17,-17.11,0,*6C
1515013610.21,40316,7.69,71334.3,-11.09,-17.17,-17.17,0,*69
1515013611.49,40317,7.63,71370.0,-11.09,-17.17,-17.25,0,*69
1515013612.78,40318,7.63,71348.8,-11.09,-17.25,-17.25,0,*67
1515013614.06,40319,7.63,71302.3,-11.09,-17.25,-17.11,0,*61
1515013615.35,40320,7.69,71304.0,-11.13,-17.21,-17.21,0,*67
1515013616.56,40321,7.63,71326.0,-11.11,-16.97,-16.97,0,*64
1515013617.83,40322,7.69,71342.5,-11.11,-17.17,-17.11,0,*61
1515013619.12,40323,7.63,71362.5,-11.13,-17.21,-17.17,0,*61
1515013620.39,40324,7.69,71344.5,-11.11,-17.41,-17.25,0,*63
1515013621.65,40325,7.69,71290.5,-11.13,-17.45,-17.31,0,*61
1515013622.91,40326,7.63,71320.5,-11.13,-17.31,-17.21,0,*60
1515013624.17,40327,7.63,71302.8,-11.13,-17.31,-17.45,0,*63
1515013625.44,40328,7.63,71314.5,-11.13,-17.35,-17.45,0,*68
1515013626.69,40329,7.63,71322.8,-11.13,-17.31,-17.35,0,*6A
1515013627.9,40330,7.63,71354.8,-11.15,-17.31,-17.35,0,*64
1515013629.17,40331,7.63,71346.0,-11.13,-17.45,-17.49,0,*6B
1515013630.44,40332,7.63,71304.8,-11.13,-17.45,-17.49,0,*68
1515013631.67,40333,7.63,71322.8,-11.11,-17.31,-17.45,0,*64
1515013632.9,40334,7.63,71342.8,-11.13,-17.31,-17.49,0,*6D
1515013634.14,40335,7.69,71322.5,-11.13,-17.35,-17.49,0,*68
1515013635.39,40336,7.63,71334.5,-11.13,-17.31,-17.35,0,*64
1515013636.65,40337,7.63,71340.0,-11.13,-17.31,-17.45,0,*62
1515013637.91,40338,7.63,71342.3,-11.13,-17.31,-17.45,0,*6D
1515013639.18,40339,7.63,71374.8,-11.13,-17.35,-17.59,0,*65
1515013640.42,40340,7.63,71422.0,-11.15,-17.49,-17.59,0,*66
1515013641.68,40341,7.63,71360.3,-11.13,-17.49,-17.63,0,*68
1515013642.95,40342,7.63,71360.3,-11.15,-17.45,-17.63,0,*61
1515013644.19,40343,7.63,71394.3,-11.15,-17.45,-17.49,0,*68
1515013645.43,40344,7.63,71372.3,-11.15,-17.45,-17.31,0,*60
1515013646.67,40345,7.63,71326.8,-11.17,-16.79,-16.37,0,*6A
1515013647.93,40346,7.63,71398.5,-11.15,-16.31,-16.27,0,*66
1515013649.19,40347,7.63,71302.5,-11.17,-16.31,-16.59,0,*6C
1515013650.43,40348,7.63,71276.8,-11.15,-16.93,-17.03,0,*67
1515013651.66,40349,7.63,71336.5,-11.17,-16.93,-16.93,0,*6C
1515013652.91,40350,7.63,71316.3,-11.17,-16.59,-16.59,0,*64
1515013654.17,40351,7.63,71356.5,-11.17,-16.45,-16.69,0,*6B
1515013655.42,40352,7.63,71432.3,-11.15,-16.55,-16.65,0,*67
1515013656.65,40353,7.69,71416.0,-11.15,-16.31,-16.41,0,*62
1515013657.9,40354,7.69,71352.8,-11.17,-16.37,-16.59,0,*68
1515013659.16,40355,7.69,71346.3,-11.17,-16.45,-16.51,0,*64
1515013660.4,40356,7.69,71322.3,-11.17,-16.79,-16.93,0,*66
1515013661.63,40357,7.69,71332.8,-11.15,-16.93,-17.03,0,*69
1515013662.85,40358,7.63,71314.0,-11.15,-16.75,-16.79,0,*62
1515013664.09,40359,7.63,71322.3,-11.15,-16.79,-17.03,0,*63
1515013665.36,40360,7.63,71338.5,-11.17,-16.97,-17.07,0,*6F
1515013666.6,40361,7.63,71368.0,-11.15,-17.03,-16.93,0,*6C
1515013667.86,40362,7.63,71332.0,-11.17,-16.93,-17.11,0,*6E
1515013669.1,40363,7.63,71308.3,-11.15,-17.07,-17.31,0,*63
1515013670.34,40364,7.63,71340.0,-11.15,-17.07,-17.31,0,*64
1515013671.57,40365,7.63,71346.8,-11.15,-17.21,-17.31,0,*61
1515013672.84,40366,7.63,71356.0,-11.17,-17.35,-17.55,0,*67
1515013674.13,40367,7.63,71368.5,-11.17,-17.41,-17.63,0,*60
1515013675.43,40368,7.63,71388.3,-11.17,-17.41,-17.55,0,*6A
1515013676.71,40369,7.63,71428.3,-11.17,-17.25,-17.25,0,*6E
1515013678.0,40370,7.63,71414.5,-11.17,-17.21,-17.25,0,*62
1515013679.25,40371,7.63,71412.5,-11.15,-17.21,-17.35,0,*60
1515013680.49,40372,7.63,71398.5,-11.15,-17.21,-17.31,0,*67
1515013681.77,40373,7.63,71418.3,-11.17,-17.25,-17.25,0,*65
1515013683.02,40374,7.63,71374.3,-11.17,-16.97,-16.83,0,*67
1515013684.31,40375,7.63,71336.8,-11.17,-16.65,-16.65,0,*63
1515013685.57,40376,7.69,71292.3,-11.17,-16.03,-16.31,0,*61
1515013686.84,40377,7.63,71284.5,-11.17,-15.95,-16.17,0,*68
1515013688.11,40378,7.69,71256.0,-11.17,-16.09,-16.59,0,*6B
1515013689.36,40379,7.69,71286.8,-11.17,-16.59,-16.97,0,*6D
1515013690.64,40380,7.69,71314.0,-11.17,-17.11,-17.55,0,*69
1515013691.93,40381,7.63,71324.5,-11.17,-17.25,-17.63,0,*6A
1515013693.22,40382,7.69,71324.0,-11.17,-17.25,-17.63,0,*69
1515013694.47,40383,7.63,71310.0,-11.19,-17.41,-17.73,0,*65
1515013695.71,40384,7.63,71314.8,-11.17,-17.35,-17.73,0,*6F
1515013696.98,40385,7.63,71328.3,-11.17,-17.41,-17.73,0,*6D
1515013698.22,40386,7.63,71330.0,-11.17,-17.35,-17.73,0,*6D
1515013699.48,40387,7.69,71340.0,-11.17,-17.41,-17.73,0,*6F
1515013700.76,40388,7.63,71358.5,-11.17,-17.41,-17.83,0,*6F
1515013702.03,40389,7.69,71370.3,-11.17,-17.41,-17.73,0,*61